Weather observations for the past three days for
Nelson Lagoon
| Date | Time (akdt) | Wind (kph) | Vis. (km) | Weather | Sky Cond. | Temperature (ºC) | Relative Humidity | Wind Chill (°C) | Heat Index (°C) | Pressure | Precipitation (cm) | ||||||
|---|---|---|---|---|---|---|---|---|---|---|---|---|---|---|---|---|---|
| Air | Dwpt | 6 hour | altimeter (cm) | sea level (mb) | 1 hr | 3 hr | 6 hr | ||||||||||
| Max. | Min. | ||||||||||||||||
| 10 | 09:56 | W 15 | 16.09 | Overcast | OVC020 | 0 | 0 | 0% | 75.26 | 0.0 | |||||||
| 10 | 08:56 | SW 17 | 16.09 | Overcast | OVC018 | 0 | 0 | 0% | 75.23 | 0.0 | |||||||
| 10 | 07:56 | SW 17 | 16.09 | Overcast | OVC018 | 0 | 0 | 0% | 75.21 | 0.0 | |||||||
| 10 | 06:56 | W 22 | 16.09 | Overcast | OVC018 | 0 | 0 | 0% | 75.21 | 0.0 | |||||||
| 10 | 05:56 | W 20 | 16.09 | Overcast | OVC018 | 0 | 0 | 0% | 75.21 | 0.0 | |||||||
| 10 | 04:56 | W 28 | 16.09 | Overcast | FEW012 OVC020 | 0 | 0 | 0% | 75.21 | 0.0 | |||||||
| 10 | 03:56 | W 31 | 16.09 | Overcast | OVC021 | 0 | 0 | 0% | 75.21 | 0.0 | |||||||
| 10 | 02:56 | W 26 | 16.09 | Overcast | OVC025 | 0 | 0 | 0% | 75.18 | 0.0 | |||||||
| 10 | 01:56 | W 20 | 16.09 | Overcast | SCT018 SCT024 OVC034 | 0 | 0 | 0% | 75.18 | 0.0 | |||||||
| 10 | 00:56 | W 31 | 16.09 | Overcast | OVC022 | 0 | 0 | 0% | 75.16 | 0.0 | |||||||
| 09 | 23:56 | W 30 | 16.09 | Overcast | OVC020 | 0 | 0 | 0% | 75.13 | 0.0 | |||||||
| 09 | 22:56 | SW 19 | 16.09 | Overcast | OVC020 | 0 | 0 | 0% | 75.13 | 0.0 | |||||||
| 09 | 21:56 | W 19 | 16.09 | Overcast | OVC018 | 0 | 0 | 0% | 75.11 | 0.0 | |||||||
| 09 | 20:56 | W 20 | 16.09 | Overcast | OVC016 | 0 | 0 | 0% | 75.08 | 0.0 | |||||||
| 09 | 19:56 | NW 17 | 16.09 | Overcast | OVC014 | 0 | 0 | 0% | 75.06 | 0.0 | |||||||
| 09 | 18:56 | NW 24 | 16.09 | Overcast | OVC012 | 0 | 0 | 0% | 75.06 | 0.0 | |||||||
| 09 | 16:56 | NW 28 | 16.09 | Overcast | OVC006 | 0 | 0 | 0% | 75.01 | 0.0 | |||||||
| 09 | 15:56 | NW 24 | 16.09 | Overcast | OVC006 | 0 | 0 | 0% | 75.01 | 0.0 | |||||||
| 09 | 13:56 | W 22 | 16.09 | Overcast | BKN004 OVC065 | 0 | 0 | 0% | 75.01 | 0.0 | |||||||
| 09 | 12:56 | W 17 | 16.09 | Overcast | OVC035 | 0 | 0 | 0% | 75.01 | 0.0 | |||||||
| 09 | 11:56 | W 9 | 16.09 | Mostly Cloudy | BKN008 | 2.8 | -1.1 | 76% | 1 | 75.01 | 1000.0 | ||||||
| 09 | 10:56 | NW 9 | 16.09 | Mostly Cloudy | BKN010 | 1.7 | -1.7 | 78% | -1 | 75.03 | 1000.3 | ||||||
| 09 | 09:56 | W 13 | 16.09 | Mostly Cloudy | BKN012 | 1.1 | -1.7 | 1.1 | -2.2 | 82% | -2 | 75.03 | 1000.2 | ||||
| 09 | 08:56 | W 15 | 16.09 | A Few Clouds | FEW012 | 0.6 | -2.2 | 82% | -3 | 75.03 | 1000.2 | ||||||
| 09 | 07:56 | W 17 | 16.09 | Overcast | OVC015 | 0 | -2.2 | 85% | -4 | 75.03 | 1000.3 | ||||||
| 09 | 06:56 | SW 15 | 16.09 | Mostly Cloudy | BKN017 | -1.7 | -3.9 | 85% | -6 | 75.03 | 1000.2 | ||||||
| 09 | 05:56 | SW 13 | 16.09 | Overcast | OVC017 | -1.1 | -3.3 | 85% | -5 | 75.06 | 1000.6 | ||||||
| 09 | 04:56 | W 11 | 16.09 | Overcast | OVC017 | -1.1 | -3.3 | 85% | -5 | 75.11 | 1001.2 | ||||||
| 09 | 03:56 | W 13 | 16.09 | Overcast | OVC015 | -1.1 | -3.3 | -0.6 | -2.2 | 85% | -5 | 75.13 | 1001.5 | ||||
| 09 | 02:56 | W 13 | 16.09 | Mostly Cloudy | BKN013 | -1.7 | -3.3 | 89% | -6 | 75.16 | 1002.0 | ||||||
| 09 | 01:56 | W 13 | 16.09 | Overcast | OVC013 | -1.7 | -3.3 | 89% | -6 | 75.21 | 1002.5 | ||||||
| 09 | 00:56 | W 13 | 16.09 | Overcast | OVC011 | -1.1 | -2.2 | 92% | -5 | 75.23 | 1002.9 | ||||||
| 08 | 23:56 | W 13 | 16.09 | Overcast | OVC011 | -1.1 | -2.2 | 92% | -5 | 75.26 | 1003.3 | ||||||
| 08 | 22:56 | W 6 | 16.09 | Overcast | OVC009 | -0.6 | -2.2 | 89% | 75.29 | 1003.6 | |||||||
| 08 | 21:56 | W 13 | 16.09 | Overcast | OVC003 | -1.1 | -2.2 | 0 | -1.7 | 92% | -5 | 75.31 | 1003.9 | ||||
| 08 | 20:56 | W 15 | 16.09 | Overcast | OVC005 | -1.7 | -2.8 | 92% | -6 | 75.31 | 1004.1 | ||||||
| 08 | 19:56 | W 15 | 16.09 | Overcast | OVC005 | -0.6 | -1.7 | 92% | -5 | 75.36 | 1004.5 | ||||||
| 08 | 18:56 | W 13 | 16.09 | Overcast | OVC005 | -0.6 | -2.2 | 89% | -4 | 75.39 | 1005.1 | ||||||
| 08 | 17:56 | W 13 | 16.09 | Overcast | OVC005 | -0.6 | -1.7 | 92% | -4 | 75.44 | 1005.6 | ||||||
| 08 | 16:56 | NW 13 | 16.09 | Overcast | OVC005 | -0.6 | -1.7 | 92% | -4 | 75.46 | 1006.0 | ||||||
| 08 | 15:56 | NW 15 | 16.09 | Overcast | OVC003 | -0.6 | -1.7 | 0 | -1.7 | 92% | -5 | 75.51 | 1006.8 | ||||
| 08 | 14:56 | NW 9 | 16.09 | Overcast | OVC005 | -0.6 | -1.1 | 96% | -3 | 75.54 | 1007.1 | ||||||
| 08 | 13:56 | N 13 | 16.09 | Overcast | OVC005 | -0.6 | -1.1 | 96% | -4 | 75.57 | 1007.4 | ||||||
| 08 | 12:56 | N 11 | 16.09 | Overcast | OVC005 | -0.6 | -1.1 | 96% | -4 | 75.59 | 1007.7 | ||||||
| 08 | 11:56 | N 11 | 16.09 | Overcast | OVC005 | -0.6 | -1.7 | 92% | -4 | 75.62 | 1007.9 | ||||||
| 08 | 10:56 | N 15 | 16.09 | Overcast | OVC005 | -1.1 | -1.7 | 96% | -5 | 75.64 | 1008.5 | ||||||
| 08 | 09:56 | N 17 | 9.66 | Fog/Mist | OVC003 | -1.7 | -2.8 | -1.7 | -2.8 | 92% | -6 | 75.67 | 1008.8 | ||||
| 08 | 08:56 | N 15 | 16.09 | Overcast | OVC005 | -2.2 | -3.3 | 92% | -7 | 75.69 | 1009.0 | ||||||
| 08 | 07:56 | N 13 | 16.09 | Overcast | OVC005 | -2.2 | -3.3 | 92% | -6 | 75.69 | 1009.0 | ||||||
| 08 | 06:56 | N 13 | 11.27 | Overcast | OVC003 | -2.2 | -3.3 | 92% | -6 | 75.72 | 1009.3 | ||||||
| 08 | 05:56 | N 15 | 16.09 | Overcast | OVC003 | -2.2 | -2.8 | 96% | -7 | 75.74 | 1009.9 | ||||||
| 08 | 04:56 | N 13 | 12.87 | Overcast | OVC003 | -2.2 | -2.8 | 96% | -6 | 75.77 | 1010.1 | ||||||
| 08 | 03:56 | N 13 | 16.09 | Overcast | OVC003 | -1.7 | -2.8 | -1.7 | -2.2 | 92% | -6 | 75.79 | 1010.4 | ||||
| 08 | 02:56 | N 13 | 16.09 | Overcast | OVC003 | -1.7 | -2.8 | 92% | -6 | 75.84 | 1011.1 | ||||||
| 08 | 01:56 | N 15 | 9.66 | Fog/Mist | OVC003 | -1.7 | -3.3 | 89% | -6 | 75.87 | 1011.3 | ||||||
| 08 | 00:56 | N 13 | 4.02 | Fog/Mist | OVC003 | -2.2 | -3.3 | 92% | -6 | 75.9 | 1011.7 | ||||||
| 07 | 23:56 | N 11 | 4.02 | Fog/Mist | OVC003 | -2.2 | -3.3 | 92% | -6 | 75.9 | 1011.9 | ||||||
| 07 | 22:56 | N 9 | 16.09 | Overcast | OVC003 | -1.7 | -3.3 | 89% | -5 | 75.92 | 1012.3 | ||||||
| 07 | 21:56 | N 11 | 16.09 | Overcast | OVC005 | -1.7 | -3.3 | 0.6 | -1.7 | 89% | -5 | 75.95 | 1012.3 | ||||
| 07 | 20:56 | N 13 | 16.09 | Overcast | OVC005 | -1.7 | -3.3 | 89% | -6 | 75.95 | 1012.4 | ||||||
| 07 | 19:56 | N 15 | 16.09 | Overcast | OVC005 | -1.1 | -3.3 | 85% | -5 | 75.97 | 1012.7 | ||||||
| 07 | 18:56 | N 15 | 16.09 | Overcast | OVC005 | -1.1 | -3.3 | 85% | -5 | 76 | 1013.1 | ||||||
| 07 | 17:56 | N 15 | 16.09 | Overcast | OVC005 | -0.6 | -2.8 | 85% | -5 | 76.05 | 1013.6 | ||||||
| 07 | 16:56 | N 19 | 16.09 | Overcast | OVC005 | 0.6 | -2.2 | 82% | -4 | 76.07 | 1014.2 | ||||||
| 07 | 15:56 | N 20 | 16.09 | Overcast | BKN007 OVC010 | 0.6 | -2.2 | 1.1 | -0.6 | 82% | -4 | 76.12 | 1014.8 | ||||
| 07 | 14:56 | N 24 | 16.09 | Overcast | BKN007 OVC012 | 1.1 | -1.1 | 85% | -4 | 76.15 | 1015.0 | ||||||
| 07 | 13:56 | N 19 | 16.09 | Overcast | OVC007 | 0.6 | -1.7 | 85% | -4 | 76.17 | 1015.4 | ||||||
| 07 | 12:56 | N 15 | 16.09 | Overcast | OVC005 | 0 | -1.7 | 88% | -4 | 76.17 | 1015.6 | ||||||
| 07 | 11:56 | N 15 | 16.09 | Overcast | OVC005 | 0 | -1.7 | 88% | -4 | 76.2 | 1015.8 | ||||||
| Date | Time (akdt) | Wind (kph) | Vis. (km) | Weather | Sky Cond. | Air | Dwpt | Max. | Min. | Relative Humidity | Wind Chill (°C) | Heat Index (°C) | altimeter (cm) | sea level (mb) | 1 hr | 3 hr | 6 hr |
| 6 hour | |||||||||||||||||
| Temperature (ºC) | Pressure | Precipitation (cm) | |||||||||||||||